ASA525 KSFO-KPDX

Flight info

Callsign ASA525
Flight time 1h 24m
Altitude 36000
Route TRUKN2 GRTFL MACHU TMBRS4
Aircraft B739/M-SDE2E3FGHIRWXY/LB1

Departure

Time 2026-05-05 02:23
Airport San Francisco International Airport (KSFO)

Arrival

Time 2026-05-05 03:47
Airport Portland International Airport (KPDX)
Time Latitude Longitude Altitude Speed Heading
2026-05-05 01:41 37.61331 -122.38371 33 ft 0 kts 255°
2026-05-05 02:04 37.61332 -122.38364 33 ft 2 kts 255°
2026-05-05 02:04 37.61336 -122.38347 33 ft 2 kts 255°
2026-05-05 02:04 37.61340 -122.38329 33 ft 2 kts 255°
2026-05-05 02:05 37.61344 -122.38310 32 ft 2 kts 255°
2026-05-05 02:05 37.61348 -122.38292 33 ft 2 kts 255°
2026-05-05 02:05 37.61352 -122.38274 32 ft 2 kts 256°
2026-05-05 02:05 37.61353 -122.38254 32 ft 2 kts 277°
2026-05-05 02:06 37.61350 -122.38236 32 ft 2 kts 291°
2026-05-05 02:06 37.61345 -122.38223 32 ft 1 kts 304°
2026-05-05 02:06 37.61338 -122.38206 32 ft 2 kts 274°
2026-05-05 02:06 37.61340 -122.38187 32 ft 2 kts 248°
2026-05-05 02:07 37.61349 -122.38172 32 ft 2 kts 220°
2026-05-05 02:07 37.61355 -122.38167 32 ft 1 kts 205°
2026-05-05 02:07 37.61359 -122.38165 32 ft 0 kts 209°
2026-05-05 02:10 37.61356 -122.38166 32 ft 1 kts 209°
2026-05-05 02:10 37.61291 -122.38213 32 ft 19 kts 210°
2026-05-05 02:10 37.61175 -122.38290 32 ft 18 kts 209°
2026-05-05 02:11 37.61067 -122.38366 32 ft 16 kts 210°
2026-05-05 02:11 37.60968 -122.38422 32 ft 14 kts 171°
2026-05-05 02:11 37.60906 -122.38341 32 ft 12 kts 124°
2026-05-05 02:11 37.60871 -122.38240 31 ft 12 kts 94°
2026-05-05 02:12 37.60852 -122.38135 31 ft 11 kts 116°
2026-05-05 02:12 37.60776 -122.37969 30 ft 9 kts 118°
2026-05-05 02:12 37.60748 -122.37896 29 ft 8 kts 107°
2026-05-05 02:13 37.60757 -122.37830 29 ft 7 kts 31°
2026-05-05 02:13 37.60798 -122.37805 29 ft 5 kts 26°
2026-05-05 02:13 37.60853 -122.37769 29 ft 10 kts 28°
2026-05-05 02:13 37.60916 -122.37726 29 ft 12 kts 28°
2026-05-05 02:14 37.61023 -122.37656 28 ft 18 kts 28°
2026-05-05 02:14 37.61136 -122.37579 26 ft 17 kts 28°
2026-05-05 02:14 37.61243 -122.37508 25 ft 17 kts 28°
2026-05-05 02:14 37.61348 -122.37437 24 ft 16 kts 28°
2026-05-05 02:15 37.61442 -122.37375 22 ft 11 kts 27°
2026-05-05 02:15 37.61472 -122.37356 21 ft 0 kts 27°
2026-05-05 02:15 37.61473 -122.37355 21 ft 0 kts 27°
2026-05-05 02:15 37.61485 -122.37347 21 ft 2 kts 27°
2026-05-05 02:16 37.61502 -122.37332 21 ft 3 kts 41°
2026-05-05 02:16 37.61522 -122.37306 20 ft 6 kts 50°
2026-05-05 02:16 37.61552 -122.37240 19 ft 9 kts 72°
2026-05-05 02:16 37.61556 -122.37161 18 ft 9 kts 97°
2026-05-05 02:17 37.61540 -122.37084 17 ft 9 kts 115°
2026-05-05 02:17 37.61511 -122.37015 16 ft 8 kts 119°
2026-05-05 02:17 37.61479 -122.36945 15 ft 10 kts 124°
2026-05-05 02:17 37.61433 -122.36876 14 ft 11 kts 134°
2026-05-05 02:18 37.61380 -122.36803 14 ft 10 kts 127°
2026-05-05 02:18 37.61341 -122.36718 13 ft 13 kts 118°
2026-05-05 02:18 37.61298 -122.36617 13 ft 12 kts 118°
2026-05-05 02:18 37.61259 -122.36526 12 ft 11 kts 118°
2026-05-05 02:19 37.61221 -122.36436 12 ft 11 kts 118°
2026-05-05 02:19 37.61186 -122.36352 12 ft 9 kts 118°
2026-05-05 02:19 37.61156 -122.36280 12 ft 8 kts 118°
2026-05-05 02:19 37.61130 -122.36217 12 ft 7 kts 118°
2026-05-05 02:20 37.61103 -122.36153 12 ft 12 kts 118°
2026-05-05 02:20 37.61064 -122.36061 11 ft 11 kts 118°
2026-05-05 02:20 37.61051 -122.35975 11 ft 9 kts 76°
2026-05-05 02:20 37.61086 -122.35915 12 ft 7 kts 38°
2026-05-05 02:21 37.61129 -122.35887 11 ft 6 kts 19°
2026-05-05 02:21 37.61164 -122.35875 11 ft 4 kts 14°
2026-05-05 02:21 37.61190 -122.35870 11 ft 3 kts 354°
2026-05-05 02:21 37.61200 -122.35885 11 ft 2 kts 290°
2026-05-05 02:22 37.61206 -122.35905 11 ft 2 kts 290°
2026-05-05 02:22 37.61219 -122.35939 11 ft 12 kts 296°
2026-05-05 02:22 37.61361 -122.36282 12 ft 77 kts 298°
2026-05-05 02:22 37.61709 -122.37112 18 ft 134 kts 298°
2026-05-05 02:23 37.62224 -122.38334 143 ft 170 kts 297°
2026-05-05 02:23 37.62793 -122.39597 809 ft 171 kts 300°
2026-05-05 02:23 37.63515 -122.40811 1176 ft 177 kts 321°
2026-05-05 02:23 37.64656 -122.41243 1613 ft 182 kts
2026-05-05 02:24 37.65898 -122.40705 1843 ft 197 kts 30°
2026-05-05 02:24 37.66908 -122.39482 2060 ft 214 kts 56°
2026-05-05 02:24 37.67519 -122.37698 2284 ft 229 kts 71°
2026-05-05 02:24 37.68016 -122.35709 2489 ft 244 kts 71°
2026-05-05 02:25 37.68543 -122.33657 2912 ft 250 kts 71°
2026-05-05 02:25 37.69112 -122.31510 3297 ft 266 kts 71°
2026-05-05 02:25 37.69707 -122.29289 3981 ft 270 kts 71°
2026-05-05 02:25 37.70310 -122.27042 4809 ft 268 kts 71°
2026-05-05 02:26 37.70996 -122.24884 5525 ft 270 kts 62°
2026-05-05 02:26 37.72175 -122.23057 6204 ft 273 kts 38°
2026-05-05 02:26 37.73869 -122.21974 6877 ft 277 kts 17°
2026-05-05 02:26 37.75774 -122.21550 7599 ft 278 kts
2026-05-05 02:27 37.77698 -122.21514 8315 ft 278 kts 359°
2026-05-05 02:27 37.79652 -122.21603 8980 ft 281 kts 358°
2026-05-05 02:27 37.81602 -122.21704 9661 ft 282 kts 358°
2026-05-05 02:27 37.83552 -122.21784 10273 ft 286 kts 359°
2026-05-05 02:28 37.85605 -122.21846 10597 ft 301 kts 359°
2026-05-05 02:28 37.87742 -122.21900 10898 ft 316 kts 360°
2026-05-05 02:28 37.90000 -122.21957 11190 ft 332 kts 360°
2026-05-05 02:28 37.92364 -122.22016 11727 ft 338 kts
2026-05-05 02:29 37.94718 -122.22078 12397 ft 341 kts
2026-05-05 02:29 37.97086 -122.22141 13003 ft 345 kts
2026-05-05 02:29 37.99507 -122.22204 13614 ft 350 kts
2026-05-05 02:29 38.01761 -122.22263 14268 ft 351 kts
2026-05-05 02:30 38.04212 -122.22327 14962 ft 353 kts
2026-05-05 02:30 38.06656 -122.22392 15714 ft 352 kts
2026-05-05 02:30 38.09089 -122.22459 16417 ft 352 kts
2026-05-05 02:30 38.11539 -122.22523 17082 ft 354 kts
2026-05-05 02:31 38.13938 -122.22585 17716 ft 355 kts
2026-05-05 02:31 38.16340 -122.22650 18313 ft 357 kts
2026-05-05 02:31 38.18779 -122.22714 18904 ft 358 kts
2026-05-05 02:31 38.21279 -122.22773 19457 ft 360 kts
2026-05-05 02:32 38.23827 -122.22841 19971 ft 364 kts
2026-05-05 02:32 38.26374 -122.22915 20457 ft 368 kts
2026-05-05 02:32 38.28957 -122.22982 20932 ft 372 kts
2026-05-05 02:32 38.31534 -122.23048 21432 ft 375 kts
2026-05-05 02:33 38.34169 -122.23117 21968 ft 376 kts
2026-05-05 02:33 38.36782 -122.23219 22399 ft 381 kts
2026-05-05 02:33 38.39450 -122.23441 22868 ft 385 kts
2026-05-05 02:33 38.42139 -122.23734 23350 ft 387 kts
2026-05-05 02:34 38.44883 -122.24051 23767 ft 391 kts
2026-05-05 02:34 38.47559 -122.24361 24282 ft 391 kts
2026-05-05 02:34 38.50301 -122.24674 24760 ft 393 kts
2026-05-05 02:34 38.53023 -122.24974 25183 ft 396 kts
2026-05-05 02:35 38.55802 -122.25272 25516 ft 400 kts
2026-05-05 02:35 38.58582 -122.25568 26066 ft 399 kts
2026-05-05 02:35 38.61376 -122.25862 26300 ft 405 kts
2026-05-05 02:35 38.64182 -122.26157 26769 ft 404 kts
2026-05-05 02:36 38.66967 -122.26451 27126 ft 406 kts
2026-05-05 02:36 38.69791 -122.26749 27489 ft 407 kts
2026-05-05 02:36 38.72641 -122.27045 27782 ft 410 kts
2026-05-05 02:36 38.75498 -122.27341 28157 ft 411 kts
2026-05-05 02:37 38.78356 -122.27642 28470 ft 413 kts
2026-05-05 02:37 38.81240 -122.27941 28607 ft 419 kts
2026-05-05 02:37 38.84153 -122.28249 29077 ft 417 kts
2026-05-05 02:37 38.87034 -122.28552 29315 ft 420 kts
2026-05-05 02:38 38.89980 -122.28863 29626 ft 421 kts
2026-05-05 02:38 38.92921 -122.29175 29992 ft 421 kts
2026-05-05 02:38 38.95847 -122.29482 30241 ft 424 kts
2026-05-05 02:38 38.98792 -122.29791 30460 ft 426 kts
2026-05-05 02:39 39.01741 -122.30099 30663 ft 429 kts
2026-05-05 02:39 39.04733 -122.30411 30906 ft 430 kts
2026-05-05 02:39 39.07718 -122.30728 31174 ft 431 kts
2026-05-05 02:39 39.10725 -122.31048 31536 ft 429 kts
2026-05-05 02:40 39.13522 -122.31345 31963 ft 425 kts
2026-05-05 02:40 39.16436 -122.31657 32384 ft 423 kts
2026-05-05 02:40 39.19305 -122.31962 32767 ft 421 kts
2026-05-05 02:40 39.22206 -122.32268 33129 ft 420 kts
2026-05-05 02:41 39.25108 -122.32574 33509 ft 419 kts
2026-05-05 02:41 39.28022 -122.32880 33894 ft 417 kts
2026-05-05 02:41 39.30905 -122.33185 34269 ft 415 kts
2026-05-05 02:41 39.33798 -122.33490 34508 ft 415 kts
2026-05-05 02:42 39.36653 -122.33791 34729 ft 416 kts
2026-05-05 02:42 39.39571 -122.34100 34933 ft 417 kts
2026-05-05 02:42 39.42437 -122.34405 35175 ft 416 kts
2026-05-05 02:42 39.45318 -122.34712 35410 ft 415 kts
2026-05-05 02:43 39.48215 -122.35022 35609 ft 416 kts
2026-05-05 02:43 39.51075 -122.35326 35761 ft 417 kts
2026-05-05 02:43 39.53971 -122.35633 35890 ft 419 kts
2026-05-05 02:44 39.59798 -122.36259 35949 ft 417 kts
2026-05-05 02:44 39.65569 -122.36884 35950 ft 415 kts
2026-05-05 02:45 39.71325 -122.37505 35948 ft 417 kts
2026-05-05 02:45 39.77140 -122.38128 35974 ft 416 kts
2026-05-05 02:46 39.82886 -122.38749 35978 ft 412 kts
2026-05-05 02:46 39.88594 -122.39366 35953 ft 411 kts
2026-05-05 02:47 39.94286 -122.39983 35966 ft 413 kts
2026-05-05 02:47 39.99995 -122.40601 35964 ft 410 kts
2026-05-05 02:48 40.05663 -122.41218 35955 ft 411 kts
2026-05-05 02:48 40.11369 -122.41830 35948 ft 413 kts
2026-05-05 02:49 40.16872 -122.42434 35942 ft 410 kts
2026-05-05 02:49 40.22574 -122.43061 35940 ft 409 kts
2026-05-05 02:50 40.28267 -122.43681 35936 ft 410 kts
2026-05-05 02:50 40.33933 -122.44303 35926 ft 408 kts
2026-05-05 02:51 40.39626 -122.44925 35933 ft 409 kts
2026-05-05 02:51 40.45289 -122.45546 35933 ft 409 kts
2026-05-05 02:52 40.50964 -122.46171 35934 ft 409 kts
2026-05-05 02:52 40.56635 -122.46796 35932 ft 408 kts
2026-05-05 02:53 40.62324 -122.47427 35941 ft 408 kts
2026-05-05 02:53 40.67983 -122.48051 35946 ft 408 kts
2026-05-05 02:54 40.73664 -122.48683 35947 ft 407 kts
2026-05-05 02:54 40.79292 -122.49307 35953 ft 408 kts
2026-05-05 02:55 40.84956 -122.49936 35953 ft 406 kts
2026-05-05 02:55 40.90606 -122.50566 35953 ft 407 kts
2026-05-05 02:56 40.96257 -122.51193 35951 ft 406 kts
2026-05-05 02:56 41.01884 -122.51824 35951 ft 404 kts
2026-05-05 02:57 41.07515 -122.52450 35955 ft 407 kts
2026-05-05 02:57 41.10312 -122.52761 36296 ft 407 kts
2026-05-05 02:57 41.13076 -122.53071 36055 ft 408 kts
2026-05-05 02:58 41.18522 -122.53693 35973 ft 400 kts
2026-05-05 02:58 41.24055 -122.54312 35978 ft 403 kts
2026-05-05 02:59 41.29699 -122.54941 35980 ft 404 kts
2026-05-05 02:59 41.35277 -122.55571 35975 ft 404 kts
2026-05-05 03:00 41.39977 -122.56105 35970 ft 404 kts
2026-05-05 03:00 41.46512 -122.56848 35959 ft 403 kts
2026-05-05 03:01 41.52105 -122.57484 35948 ft 404 kts
2026-05-05 03:01 41.57707 -122.57974 35948 ft 402 kts
2026-05-05 03:02 41.63280 -122.58299 35940 ft 401 kts
2026-05-05 03:02 41.68887 -122.58625 35942 ft 401 kts
2026-05-05 03:03 41.74459 -122.58969 35946 ft 401 kts
2026-05-05 03:03 41.80027 -122.59324 35947 ft 402 kts
2026-05-05 03:04 41.85611 -122.59687 35957 ft 401 kts
2026-05-05 03:04 41.91196 -122.60050 35954 ft 402 kts
2026-05-05 03:05 41.96777 -122.60420 35960 ft 402 kts
2026-05-05 03:05 42.02342 -122.60789 35968 ft 400 kts
2026-05-05 03:06 42.07954 -122.61153 35967 ft 402 kts
2026-05-05 03:06 42.13489 -122.61518 35958 ft 402 kts
2026-05-05 03:07 42.19007 -122.61881 35954 ft 402 kts
2026-05-05 03:07 42.24592 -122.62252 35950 ft 401 kts
2026-05-05 03:08 42.30154 -122.62627 35947 ft 401 kts
2026-05-05 03:08 42.35731 -122.63001 35944 ft 400 kts
2026-05-05 03:09 42.41304 -122.63376 35940 ft 400 kts
2026-05-05 03:09 42.46874 -122.63748 35936 ft 399 kts
2026-05-05 03:10 42.52390 -122.64119 35932 ft 399 kts
2026-05-05 03:10 42.57989 -122.64494 35938 ft 400 kts
2026-05-05 03:11 42.63527 -122.64871 35942 ft 398 kts
2026-05-05 03:11 42.69073 -122.65243 35950 ft 399 kts
2026-05-05 03:12 42.74617 -122.65618 35953 ft 399 kts
2026-05-05 03:12 42.80178 -122.65994 35955 ft 399 kts
2026-05-05 03:13 42.85749 -122.66373 35959 ft 400 kts
2026-05-05 03:13 42.91296 -122.66750 35963 ft 398 kts
2026-05-05 03:14 42.96824 -122.67124 35962 ft 398 kts
2026-05-05 03:14 43.02349 -122.67500 35969 ft 398 kts
2026-05-05 03:15 43.07933 -122.67883 35964 ft 399 kts
2026-05-05 03:15 43.13401 -122.68259 35967 ft 399 kts
2026-05-05 03:16 43.18744 -122.68628 35959 ft 398 kts
2026-05-05 03:16 43.23856 -122.68980 35968 ft 397 kts
2026-05-05 03:17 43.29377 -122.69357 35961 ft 398 kts
2026-05-05 03:17 43.34963 -122.69741 35969 ft 399 kts
2026-05-05 03:18 43.40495 -122.70126 35970 ft 398 kts
2026-05-05 03:18 43.46009 -122.70506 35973 ft 398 kts
2026-05-05 03:19 43.54347 -122.71079 35969 ft 396 kts
2026-05-05 03:19 43.59842 -122.71464 35972 ft 397 kts
2026-05-05 03:20 43.65368 -122.71845 35968 ft 396 kts
2026-05-05 03:20 43.70851 -122.72233 35968 ft 386 kts
2026-05-05 03:21 43.73511 -122.72426 35851 ft 376 kts
2026-05-05 03:21 43.76112 -122.72613 35540 ft 371 kts
2026-05-05 03:21 43.78682 -122.72789 35079 ft 378 kts
2026-05-05 03:21 43.81352 -122.72962 34594 ft 382 kts
2026-05-05 03:22 43.84007 -122.73140 34107 ft 379 kts
2026-05-05 03:22 43.86623 -122.73322 33645 ft 375 kts
2026-05-05 03:22 43.89206 -122.73505 33177 ft 372 kts
2026-05-05 03:22 43.91801 -122.73689 32705 ft 369 kts
2026-05-05 03:23 43.94353 -122.73869 32237 ft 365 kts
2026-05-05 03:23 43.96851 -122.74046 31782 ft 362 kts
2026-05-05 03:23 43.99358 -122.74222 31320 ft 359 kts
2026-05-05 03:23 44.01836 -122.74397 30860 ft 356 kts
2026-05-05 03:24 44.04317 -122.74572 30401 ft 353 kts
2026-05-05 03:24 44.06734 -122.74741 29949 ft 350 kts
2026-05-05 03:24 44.09185 -122.74913 29490 ft 347 kts
2026-05-05 03:24 44.11575 -122.75082 29052 ft 344 kts
2026-05-05 03:25 44.13876 -122.75243 28625 ft 341 kts
2026-05-05 03:25 44.16151 -122.75288 28189 ft 337 kts
2026-05-05 03:25 44.18345 -122.75140 27779 ft 337 kts
2026-05-05 03:25 44.20613 -122.74895 27350 ft 340 kts
2026-05-05 03:26 44.22948 -122.74622 26909 ft 340 kts
2026-05-05 03:26 44.25222 -122.74365 26486 ft 337 kts
2026-05-05 03:26 44.27552 -122.74111 26051 ft 334 kts
2026-05-05 03:26 44.29857 -122.73870 25618 ft 332 kts
2026-05-05 03:27 44.32162 -122.73634 25187 ft 329 kts
2026-05-05 03:27 44.34419 -122.73408 24759 ft 327 kts
2026-05-05 03:27 44.36689 -122.73183 24334 ft 324 kts
2026-05-05 03:27 44.38923 -122.72961 23915 ft 322 kts
2026-05-05 03:28 44.41163 -122.72739 23497 ft 319 kts
2026-05-05 03:28 44.43384 -122.72518 23079 ft 317 kts
2026-05-05 03:28 44.45549 -122.72303 22674 ft 315 kts
2026-05-05 03:28 44.47739 -122.72085 22256 ft 313 kts
2026-05-05 03:29 44.49904 -122.71870 21854 ft 311 kts
2026-05-05 03:29 44.52081 -122.71654 21442 ft 309 kts
2026-05-05 03:29 44.54227 -122.71441 21038 ft 307 kts
2026-05-05 03:29 44.56342 -122.71231 20644 ft 305 kts
2026-05-05 03:30 44.58457 -122.71021 20254 ft 306 kts
2026-05-05 03:30 44.60574 -122.70808 19851 ft 310 kts
2026-05-05 03:30 44.62741 -122.70590 19436 ft 310 kts
2026-05-05 03:30 44.64878 -122.70376 19044 ft 308 kts
2026-05-05 03:31 44.67025 -122.70160 18637 ft 306 kts
2026-05-05 03:31 44.69124 -122.69950 18226 ft 304 kts
2026-05-05 03:31 44.71250 -122.69738 17836 ft 302 kts
2026-05-05 03:31 44.73327 -122.69530 17448 ft 301 kts
2026-05-05 03:32 44.75432 -122.69317 17056 ft 299 kts
2026-05-05 03:32 44.77479 -122.69109 16668 ft 297 kts
2026-05-05 03:32 44.79528 -122.68903 16266 ft 296 kts
2026-05-05 03:32 44.81588 -122.68696 15875 ft 294 kts
2026-05-05 03:33 44.83635 -122.68491 15491 ft 292 kts
2026-05-05 03:33 44.85638 -122.68288 15131 ft 289 kts
2026-05-05 03:33 44.87646 -122.68087 14805 ft 286 kts
2026-05-05 03:33 44.89628 -122.67886 14431 ft 284 kts
2026-05-05 03:34 44.91584 -122.67689 14069 ft 283 kts
2026-05-05 03:34 44.93558 -122.67414 13670 ft 282 kts 12°
2026-05-05 03:34 44.95367 -122.66413 13061 ft 289 kts 29°
2026-05-05 03:34 44.97079 -122.64863 12614 ft 290 kts 33°
2026-05-05 03:35 44.98725 -122.63238 12243 ft 288 kts 34°
2026-05-05 03:35 45.00353 -122.61615 11845 ft 287 kts 34°
2026-05-05 03:35 45.01985 -122.59987 11484 ft 285 kts 34°
2026-05-05 03:35 45.03595 -122.58382 11107 ft 284 kts 34°
2026-05-05 03:36 45.05196 -122.56787 10718 ft 283 kts 34°
2026-05-05 03:36 45.06802 -122.55184 10370 ft 281 kts 34°
2026-05-05 03:36 45.08400 -122.53587 10017 ft 279 kts 34°
2026-05-05 03:36 45.09997 -122.51993 9598 ft 279 kts 34°
2026-05-05 03:37 45.11576 -122.50421 9257 ft 277 kts 34°
2026-05-05 03:37 45.13121 -122.48881 8935 ft 275 kts 34°
2026-05-05 03:37 45.14693 -122.47305 8522 ft 275 kts 34°
2026-05-05 03:37 45.16243 -122.45746 8137 ft 275 kts 34°
2026-05-05 03:38 45.17757 -122.44213 7808 ft 273 kts 34°
2026-05-05 03:38 45.19269 -122.42667 7509 ft 270 kts 34°
2026-05-05 03:38 45.20786 -122.41105 7086 ft 271 kts 34°
2026-05-05 03:38 45.22306 -122.39531 6755 ft 269 kts 33°
2026-05-05 03:39 45.23826 -122.37942 6414 ft 268 kts 33°
2026-05-05 03:39 45.25315 -122.36369 6039 ft 267 kts 34°
2026-05-05 03:39 45.26801 -122.34795 5649 ft 267 kts 35°
2026-05-05 03:39 45.28273 -122.33247 5327 ft 265 kts 34°
2026-05-05 03:40 45.29823 -122.32029 4919 ft 263 kts 16°
2026-05-05 03:40 45.31575 -122.31552 4574 ft 261 kts
2026-05-05 03:40 45.33367 -122.31288 4192 ft 261 kts
2026-05-05 03:40 45.35182 -122.31044 3806 ft 262 kts
2026-05-05 03:41 45.37006 -122.30798 3455 ft 261 kts
2026-05-05 03:41 45.38789 -122.30565 3327 ft 251 kts
2026-05-05 03:41 45.40478 -122.30466 3288 ft 237 kts 351°
2026-05-05 03:41 45.41986 -122.31235 3259 ft 222 kts 330°
2026-05-05 03:42 45.43252 -122.32349 3228 ft 209 kts 327°
2026-05-05 03:42 45.44278 -122.33292 3133 ft 202 kts 327°
2026-05-05 03:42 45.45470 -122.34386 2842 ft 200 kts 327°
2026-05-05 03:42 45.46627 -122.35432 2400 ft 198 kts 328°
2026-05-05 03:43 45.47800 -122.36486 2009 ft 198 kts 327°
2026-05-05 03:43 45.48967 -122.37534 1979 ft 194 kts 326°
2026-05-05 03:43 45.49946 -122.38769 1984 ft 182 kts 309°
2026-05-05 03:43 45.50693 -122.40221 1988 ft 182 kts 304°
2026-05-05 03:44 45.51382 -122.41731 1988 ft 182 kts 303°
2026-05-05 03:44 45.52040 -122.43276 1988 ft 182 kts 301°
2026-05-05 03:44 45.52681 -122.44836 2004 ft 180 kts 301°
2026-05-05 03:44 45.53298 -122.46397 1995 ft 181 kts 298°
2026-05-05 03:45 45.53877 -122.47929 1785 ft 171 kts 301°
2026-05-05 03:45 45.54478 -122.49324 1535 ft 162 kts 302°
2026-05-05 03:45 45.55022 -122.50687 1292 ft 151 kts 300°
2026-05-05 03:45 45.55531 -122.51931 1057 ft 144 kts 300°
2026-05-05 03:46 45.56033 -122.53152 870 ft 142 kts 297°
2026-05-05 03:46 45.56500 -122.54389 688 ft 145 kts 298°
2026-05-05 03:46 45.57004 -122.55663 494 ft 150 kts 298°
2026-05-05 03:46 45.57511 -122.56990 287 ft 153 kts 297°
2026-05-05 03:47 45.58019 -122.58316 87 ft 153 kts 297°
2026-05-05 03:47 45.58499 -122.59553 35 ft 113 kts 300°
2026-05-05 03:47 45.58781 -122.60262 35 ft 53 kts 300°
2026-05-05 03:47 45.58871 -122.60495 35 ft 10 kts 306°
2026-05-05 03:48 45.58905 -122.60524 35 ft 2 kts 19°
2026-05-05 03:48 45.58935 -122.60480 35 ft 2 kts 50°
2026-05-05 03:48 45.58947 -122.60461 35 ft 2 kts 50°
2026-05-05 03:49 45.58957 -122.60442 35 ft 2 kts 66°
2026-05-05 03:49 45.58955 -122.60402 35 ft 9 kts 108°
2026-05-05 03:49 45.58928 -122.60320 35 ft 8 kts 120°
2026-05-05 03:49 45.58897 -122.60245 35 ft 8 kts 120°
2026-05-05 03:50 45.58868 -122.60172 36 ft 7 kts 120°
2026-05-05 03:50 45.58845 -122.60113 36 ft 6 kts 119°
2026-05-05 03:50 45.58826 -122.60063 35 ft 5 kts 119°
2026-05-05 03:50 45.58809 -122.60016 36 ft 5 kts 114°
2026-05-05 03:51 45.58807 -122.59953 36 ft 11 kts 75°
2026-05-05 03:51 45.58820 -122.59843 36 ft 10 kts 99°
2026-05-05 03:51 45.58791 -122.59755 36 ft 9 kts 120°
2026-05-05 03:51 45.58786 -122.59688 36 ft 5 kts 52°
2026-05-05 03:52 45.58816 -122.59659 36 ft 4 kts 30°
2026-05-05 03:52 45.58839 -122.59641 36 ft 2 kts 29°
2026-05-05 03:52 45.58840 -122.59640 36 ft 0 kts 29°